CW7427 Weather Reports


Display with metric or nautical units.
time (UTC)temp
F
wind
direction
speed
MPH
gust
MPH
rain 1hr
in
rain 24hr
in
rain mn
in
humidity
%
barometer
mb
20260502190226 59 98 0.0 0.0 0.00 0.00 0.00 90 1019.8
20260502185951 59 98 0.0 0.0 0.00 0.00 0.00 89 1019.8
20260502185444 59 98 0.0 0.0 0.00 0.00 0.00 89 1019.6
20260502184700 59 98 0.0 0.0 0.00 0.00 0.00 90 1019.6
20260502184153 59 98 0.0 0.0 0.00 0.00 0.00 89 1019.7
20260502183643 59 98 0.0 0.0 0.00 0.00 0.00 89 1019.6
20260502183135 59 98 0.0 0.0 0.00 0.00 0.00 89 1019.7
20260502182631 59 98 0.0 0.0 0.00 0.00 0.00 89 1019.8
20260502182119 59 98 0.0 0.0 0.00 0.00 0.00 89 1019.8
20260502181611 59 98 0.0 0.0 0.00 0.00 0.00 89 1019.7
20260502181037 60 98 0.0 0.0 0.00 0.00 0.00 89 1019.8
20260502180506 60 98 0.0 0.0 0.00 0.00 0.00 89 1019.9
20260502170503 61 98 0.0 0.0 0.00 0.01 0.00 88 1019.8
20260502164135 61 98 0.0 0.0 0.00 0.01 0.00 88 1020.0
20260502163616 61 98 0.0 0.0 0.00 0.01 0.00 88 1020.1
20260502163603 62 98 0.0 0.0 0.00 0.01 0.00 88 1020.3
20260502162603 62 98 0.0 0.0 0.00 0.01 0.00 87 1020.4
20260502162101 62 98 0.0 0.0 0.00 0.01 0.00 87 1020.2
20260502161819 62 98 0.0 0.0 0.00 0.01 0.00 88 1020.2
20260502161525 62 98 0.0 0.0 0.00 0.01 0.00 88 1020.3
20260502160541 63 98 0.0 0.0 0.00 0.01 0.00 88 1020.3
20260502151906 64 98 0.0 0.0 0.00 0.01 0.00 89 1020.6
20260502151400 64 98 0.0 0.0 0.00 0.01 0.00 89 1020.7
20260502150842 64 98 0.0 0.0 0.00 0.01 0.00 89 1020.7
20260502150332 64 98 0.0 1.0 0.00 0.01 0.00 89 1020.6
20260502130528 64 98 0.0 0.0 0.00 0.01 0.01 83 1021.2
20260502123443 65 98 0.0 0.0 0.00 0.01 0.01 83 1021.2
20260502122945 65 98 0.0 0.0 0.00 0.01 0.01 83 1021.2
20260502122705 65 98 0.0 0.0 0.00 0.01 0.01 83 1021.3
20260502122156 66 98 0.0 0.0 0.00 0.01 0.01 83 1021.3
20260502121646 66 98 0.0 0.0 0.00 0.01 0.01 84 1021.4
20260502120843 66 98 0.0 0.0 0.00 0.01 0.01 84 1021.6
20260502120344 66 98 0.0 0.0 0.00 0.01 0.01 84 1021.7
20260502120108 66 98 0.0 0.0 0.00 0.01 0.01 84 1021.7
20260502115330 66 98 0.0 0.0 0.00 0.01 0.01 83 1021.7
20260502114830 66 98 0.0 0.0 0.00 0.01 0.01 83 1021.6
20260502114317 66 98 0.0 0.0 0.00 0.01 0.01 83 1021.6
20260502113817 66 98 0.0 0.0 0.00 0.01 0.01 83 1021.6
20260502113239 66 98 0.0 0.0 0.00 0.01 0.01 83 1021.5
20260502112739 66 98 0.0 0.0 0.00 0.01 0.01 83 1021.5
20260502112442 66 98 0.0 0.0 0.00 0.01 0.01 83 1021.5
20260502112326 66 98 0.0 0.0 0.00 0.01 0.01 83 1021.4
20260502111212 66 98 0.0 1.0 0.00 0.01 0.01 82 1021.6
20260502110658 67 98 0.0 1.0 0.00 0.01 0.01 82 1021.6
20260502110146 67 98 0.0 0.0 0.00 0.01 0.01 82 1021.6
20260502105646 67 98 0.0 2.0 0.00 0.01 0.01 82 1021.5
20260502105138 67 98 0.0 2.0 0.00 0.01 0.01 81 1021.5
20260502104904 67 98 0.0 1.0 0.00 0.01 0.01 81 1021.5
20260502104124 67 98 0.0 0.0 0.00 0.01 0.01 80 1021.7
20260502103601 67 98 0.0 0.0 0.00 0.01 0.01 80 1021.8
20260502103309 67 98 0.0 0.0 0.00 0.01 0.01 80 1021.8
20260502102802 67 98 0.0 0.0 0.00 0.01 0.01 80 1021.8
20260502102033 68 98 0.0 0.0 0.00 0.01 0.01 80 1021.7
20260502101531 68 98 0.0 0.0 0.00 0.01 0.01 80 1021.6
20260502101004 68 98 0.0 0.0 0.00 0.01 0.01 80 1021.4
20260502100442 68 98 0.0 0.0 0.00 0.01 0.01 80 1021.3
20260502090837 69 107 0.0 1.0 0.00 0.01 0.01 80 1021.2
20260502090331 69 107 0.0 2.0 0.00 0.01 0.01 80 1021.2
20260502071534 71 50 1.0 5.0 0.00 0.01 0.01 79 1020.6
20260502071028 71 34 1.0 6.0 0.00 0.01 0.01 78 1020.5
20260502070521 71 132 1.0 6.0 0.00 0.01 0.01 78 1020.6
20260502070007 71 52 1.0 5.0 0.00 0.01 0.01 78 1020.6
20260502065501 71 85 1.0 6.0 0.00 0.01 0.01 78 1020.7
20260502064956 71 52 1.0 8.0 0.00 0.01 0.01 77 1020.6
20260502064445 72 304 1.0 8.0 0.00 0.01 0.01 77 1020.6
20260502063934 72 14 1.0 6.0 0.00 0.01 0.01 77 1020.6
20260502063430 72 18 0.0 5.0 0.00 0.01 0.01 76 1020.6
20260502062919 72 70 1.0 8.0 0.00 0.01 0.01 76 1020.6
20260502062413 72 74 1.0 8.0 0.00 0.01 0.01 76 1020.6
20260502061907 73 46 0.0 5.0 0.00 0.01 0.01 76 1020.6
20260502061619 73 32 0.0 5.0 0.00 0.01 0.01 76 1020.5
20260502060847 72 15 1.0 5.0 0.00 0.01 0.01 75 1020.5
20260502060341 73 341 1.0 5.0 0.00 0.01 0.01 75 1020.6
20260502055836 73 79 1.0 6.0 0.00 0.01 0.01 75 1020.6
20260502055548 73 70 0.0 6.0 0.00 0.01 0.01 75 1020.7
20260502054819 73 69 0.0 5.0 0.00 0.01 0.01 75 1020.7
20260502054309 73 341 0.0 3.0 0.00 0.01 0.01 74 1020.6
20260502053759 73 355 0.0 5.0 0.00 0.01 0.01 74 1020.6
20260502053514 73 347 0.0 5.0 0.00 0.01 0.01 74 1020.6
20260502052739 73 55 0.0 5.0 0.00 0.01 0.01 74 1020.6
20260502052229 73 53 0.0 5.0 0.00 0.01 0.01 73 1020.7
20260502051727 73 29 0.0 4.0 0.00 0.01 0.01 73 1020.7
20260502051229 73 336 1.0 5.0 0.00 0.01 0.01 73 1020.8
20260502050717 73 329 1.0 7.0 0.00 0.01 0.01 72 1020.9
20260502050433 73 342 1.0 7.0 0.00 0.01 0.01 71 1020.8
20260502045715 73 84 1.0 6.0 0.00 0.01 0.01 71 1020.7
20260502045215 74 311 1.0 6.0 0.00 0.01 0.01 70 1020.8
20260502044709 74 82 1.0 6.0 0.00 0.01 0.01 71 1020.8
20260502044205 74 351 0.0 4.0 0.00 0.01 0.01 72 1020.8
20260502043707 74 336 1.0 5.0 0.00 0.01 0.01 71 1020.7
20260502043207 74 41 1.0 5.0 0.00 0.01 0.01 71 1020.8
20260502042701 74 5 0.0 5.0 0.00 0.01 0.01 71 1020.8
20260502042159 74 319 1.0 6.0 0.00 0.01 0.01 71 1020.9
20260502041658 74 293 1.0 6.0 0.00 0.01 0.01 71 1020.9
20260502041157 74 68 1.0 6.0 0.00 0.01 0.01 72 1021.0
20260502040657 74 29 1.0 6.0 0.00 0.01 0.01 72 1021.0
20260502040158 74 323 1.0 7.0 0.00 0.01 0.01 73 1020.9
20260502035646 74 319 1.0 7.0 0.00 0.01 0.01 73 1020.9
20260502035137 74 166 2.0 7.0 0.00 0.01 0.01 72 1020.9
20260502034641 74 34 1.0 6.0 0.00 0.01 0.01 72 1020.9
20260502034135 74 11 1.0 5.0 0.00 0.01 0.01 72 1021.0
20260502033636 74 9 1.0 7.0 0.00 0.01 0.01 71 1021.0
20260502033131 74 311 1.0 7.0 0.00 0.01 0.01 71 1021.1
20260502032626 74 9 1.0 7.0 0.00 0.01 0.01 72 1021.1
20260502032123 74 0 1.0 8.0 0.00 0.01 0.01 74 1021.2
20260502031615 73 105 0.0 8.0 0.00 0.01 0.01 75 1021.2
20260502031117 73 0 0.0 4.0 0.00 0.01 0.01 77 1021.2
20260502030606 72 16 1.0 5.0 0.00 0.01 0.01 76 1021.3
20260502030050 72 16 1.0 8.0 0.00 0.01 0.01 77 1021.4
20260502025536 72 313 1.0 8.0 0.00 0.01 0.01 77 1021.6
20260502025020 73 40 0.0 6.0 0.00 0.01 0.01 77 1021.7
20260502024508 72 93 0.0 2.0 0.00 0.01 0.01 79 1021.8
20260502023952 72 93 0.0 5.0 0.00 0.01 0.01 82 1021.9
20260502023437 71 93 1.0 6.0 0.00 0.01 0.01 81 1022.0
20260502023150 71 76 1.0 6.0 0.00 0.01 0.01 80 1022.1
20260502022429 71 82 1.0 5.0 0.00 0.01 0.01 80 1022.2
20260502021927 72 82 1.0 7.0 0.00 0.01 0.01 78 1022.2
20260502021427 73 81 1.0 7.0 0.00 0.01 0.01 74 1022.2
20260502020929 74 73 0.0 5.0 0.00 0.01 0.01 72 1022.4
20260502020428 74 309 0.0 4.0 0.00 0.01 0.01 71 1022.4
20260502015922 75 84 0.0 6.0 0.00 0.01 0.01 72 1022.5
20260502015415 74 128 1.0 6.0 0.00 0.01 0.01 74 1022.5
20260502015104 73 151 1.0 5.0 0.00 0.01 0.01 74 1022.7
20260502014347 73 225 2.0 8.0 0.00 0.01 0.01 73 1022.8
20260502013848 73 136 1.0 8.0 0.00 0.01 0.01 74 1022.9
20260502013349 73 111 0.0 5.0 0.00 0.01 0.01 75 1023.0
20260502012846 73 57 1.0 7.0 0.00 0.01 0.01 76 1023.2
20260502012347 73 74 0.0 7.0 0.00 0.01 0.01 74 1023.2
20260502011843 73 14 0.0 5.0 0.00 0.01 0.01 74 1023.2
20260502011344 74 0 1.0 5.0 0.00 0.01 0.01 74 1023.2
20260502011109 74 82 1.0 6.0 0.00 0.01 0.01 73 1023.2
20260502010338 74 306 1.0 8.0 0.00 0.01 0.01 73 1023.3
20260502005828 75 340 0.0 7.0 0.00 0.01 0.01 71 1023.4
20260502005538 75 263 1.0 6.0 0.00 0.01 0.01 72 1023.4
20260502004808 75 269 1.0 7.0 0.00 0.01 0.01 72 1023.4
20260502004300 74 63 0.0 7.0 0.00 0.01 0.01 73 1023.4
20260502004245 74 78 0.0 5.0 0.00 0.01 0.01 74 1023.5
20260502003512 74 75 0.0 3.0 0.00 0.01 0.01 75 1023.6
20260502002736 73 0 0.0 5.0 0.00 0.01 0.01 75 1023.6
20260502002230 74 98 0.0 4.0 0.00 0.01 0.01 75 1023.7
20260502001720 74 36 0.0 4.0 0.00 0.01 0.01 75 1023.7
20260502001218 73 0 0.0 1.0 0.00 0.01 0.01 78 1023.8
20260502000928 72 348 0.0 0.0 0.00 0.01 0.01 78 1023.8
20260502000159 72 16 0.0 0.0 0.00 0.01 0.01 79 1023.8
20260501235655 72 19 0.0 0.0 0.00 0.01 0.01 79 1023.9
20260501235140 72 19 0.0 2.0 0.00 0.01 0.01 79 1023.9
20260501234640 72 19 0.0 2.0 0.00 0.01 0.01 79 1024.0
20260501234142 72 13 0.0 0.0 0.00 0.01 0.01 81 1024.1
20260501233642 71 13 0.0 0.0 0.00 0.01 0.01 81 1024.1
20260501233127 71 13 0.0 0.0 0.00 0.01 0.01 83 1024.2
20260501232626 71 13 0.0 0.0 0.00 0.01 0.01 84 1024.2
20260501232112 70 13 0.0 0.0 0.00 0.01 0.01 85 1024.2
20260501231833 69 12 0.0 0.0 0.00 0.01 0.01 86 1024.1
20260501231101 69 12 0.0 0.0 0.00 0.01 0.01 87 1024.1
20260501230540 68 12 0.0 0.0 0.00 0.01 0.01 87 1024.2
20260501230038 68 12 0.0 0.0 0.00 0.01 0.01 87 1024.2
20260501225539 67 12 0.0 0.0 0.00 0.01 0.01 88 1024.2
20260501225030 67 12 0.0 0.0 0.00 0.01 0.01 88 1024.1
20260501224528 67 12 0.0 0.0 0.00 0.01 0.01 90 1024.1
20260501224018 65 12 0.0 0.0 0.00 0.01 0.01 90 1024.1
20260501223743 66 12 0.0 0.0 0.00 0.01 0.01 92 1024.2
20260501223008 65 12 0.0 0.0 0.00 0.01 0.01 92 1024.2
20260501222458 65 12 0.0 0.0 0.00 0.01 0.01 93 1024.2
20260501221950 64 12 0.0 0.0 0.00 0.01 0.01 93 1024.1
20260501221445 64 12 0.0 0.0 0.00 0.01 0.01 94 1024.1
20260501220945 64 12 0.0 0.0 0.00 0.01 0.01 94 1024.1
20260501220933 63 12 0.0 0.0 0.00 0.01 0.01 94 1024.0
20260501215929 63 12 0.0 0.0 0.00 0.01 0.01 94 1024.0
20260501215430 63 12 0.0 0.0 0.00 0.01 0.01 94 1023.9
20260501215153 62 12 0.0 0.0 0.00 0.01 0.01 94 1023.8
20260501214421 62 12 0.0 0.0 0.00 0.01 0.01 94 1023.8
20260501213914 62 12 0.0 0.0 0.00 0.01 0.01 94 1023.9
20260501213403 62 12 0.0 0.0 0.00 0.01 0.01 94 1023.7
20260501212854 61 12 0.0 0.0 0.00 0.01 0.01 93 1023.8
20260501212617 61 12 0.0 0.0 0.00 0.01 0.01 93 1023.8
20260501211843 61 12 0.0 0.0 0.00 0.01 0.01 93 1023.8
20260501211341 61 12 0.0 0.0 0.00 0.01 0.01 93 1023.8
20260501210842 61 12 0.0 0.0 0.00 0.01 0.01 93 1023.9
20260501210336 61 12 0.0 0.0 0.00 0.01 0.01 92 1023.9
20260501205834 61 12 0.0 0.0 0.00 0.01 0.01 92 1023.8
20260501205556 61 12 0.0 0.0 0.00 0.01 0.01 93 1023.8
20260501204823 61 12 0.0 0.0 0.00 0.01 0.01 93 1023.7
20260501204538 61 12 0.0 0.0 0.00 0.01 0.01 93 1023.6
20260501203816 61 12 0.0 0.0 0.00 0.01 0.01 93 1023.7
20260501203252 61 12 0.0 0.0 0.00 0.01 0.01 93 1023.6
20260501202751 61 18 0.0 0.0 0.00 0.01 0.01 93 1023.6
20260501202223 61 18 0.0 0.0 0.00 0.01 0.01 93 1023.6
20260501201725 61 18 0.0 0.0 0.00 0.01 0.01 93 1023.5
20260501201437 61 18 0.0 0.0 0.00 0.00 0.01 93 1023.5
20260501200704 61 79 0.0 0.0 0.00 0.00 0.00 93 1023.5
20260501200158 61 80 0.0 0.0 0.00 0.00 0.00 93 1023.4
20260501195700 61 80 0.0 0.0 0.00 0.00 0.00 93 1023.5
20260501195147 61 80 0.0 0.0 0.00 0.00 0.00 93 1023.4
20260501194632 62 79 0.0 0.0 0.00 0.00 0.00 93 1023.4
20260501194116 61 79 0.0 0.0 0.00 0.00 0.00 93 1023.3
20260501193607 62 80 0.0 0.0 0.00 0.00 0.00 92 1023.3
20260501193101 62 79 0.0 0.0 0.00 0.00 0.00 93 1023.3
20260501192555 62 80 0.0 0.0 0.00 0.00 0.00 93 1023.3
20260501192049 62 80 0.0 0.0 0.00 0.00 0.00 92 1023.3
20260501191540 62 79 0.0 0.0 0.00 0.00 0.00 92 1023.1
20260501191034 62 79 0.0 0.0 0.00 0.00 0.00 92 1023.1